Location: Erdweis
(48.5167°N, 15.3500°E)
Time: 11:03:07
(UTC+00:00)

X-37B - Pass Details

Date: 01 December 2020
Orbit: 384 x 390 km, 45.0° (Epoch: 02 January)

Event Time Altitude Azimuth Distance (km) Brightness Sun altitude
Rises 17:24:46 0° 253° (WSW) 2,263 5.9 -22.2°
Reaches altitude 10° 17:26:54 10° 247° (WSW) 1,411 4.4 -22.6°
Enters shadow 17:29:00 32° 218° (SW) 687 2.2 -22.9°
